2016-01-24 00:01:50 r, 16.44m,0000000022Hz,0000020858c,0000000.045s, 008.7C,00002191
2016-01-24 00:11:49 r, 16.40m,0000000023Hz,0000019960c,0000000.043s, 008.7C,00002191
2016-01-24 00:21:49 r, 16.32m,0000000026Hz,0000018436c,0000000.040s, 008.3C,00002191
2016-01-24 00:31:50 r, 16.17m,0000000029Hz,0000016103c,0000000.035s, 008.3C,00002191
2016-01-24 00:41:49 r, 16.32m,0000000025Hz,0000018464c,0000000.040s, 008.0C,00002191
2016-01-24 00:51:49 r, 16.39m,0000000023Hz,0000019721c,0000000.043s, 008.0C,00002191
2016-01-24 01:01:49 r, 16.44m,0000000022Hz,0000020801c,0000000.045s, 007.7C,00002191
2016-01-24 01:11:49 r, 16.44m,0000000021Hz,0000020814c,0000000.045s, 007.7C,00002191
2016-01-24 01:21:49 r, 16.50m,0000000021Hz,0000021981c,0000000.048s, 007.7C,00002191
2016-01-24 01:31:50 r, 16.42m,0000000022Hz,0000020255c,0000000.044s, 007.7C,00002191
2016-01-24 01:41:49 r, 16.33m,0000000026Hz,0000018792c,0000000.041s, 007.7C,00002191
2016-01-24 01:51:49 r, 16.47m,0000000023Hz,0000021227c,0000000.046s, 007.4C,00002191
2016-01-24 02:01:49 r, 16.35m,0000000025Hz,0000018944c,0000000.041s, 007.0C,00002191
2016-01-24 02:11:49 r, 16.41m,0000000023Hz,0000020122c,0000000.044s, 006.7C,00002191
2016-01-24 02:21:49 r, 16.48m,0000000022Hz,0000021450c,0000000.047s, 006.4C,00002191
2016-01-24 02:31:49 r, 16.60m,0000000020Hz,0000023983c,0000000.052s, 006.4C,00002191
2016-01-24 02:41:49 r, 16.61m,0000000019Hz,0000024095c,0000000.052s, 006.1C,00002191
2016-01-24 02:51:49 r, 16.52m,0000000021Hz,0000022210c,0000000.048s, 006.1C,00002191
2016-01-24 03:01:49 r, 16.82m,0000000017Hz,0000029272c,0000000.064s, 005.8C,00002191
2016-01-24 03:11:49 r, 16.62m,0000000019Hz,0000024424c,0000000.053s, 005.8C,00002191
2016-01-24 03:21:49 r, 16.67m,0000000018Hz,0000025500c,0000000.055s, 005.8C,00002191
2016-01-24 03:31:49 r, 16.72m,0000000018Hz,0000026704c,0000000.058s, 005.4C,00002191
2016-01-24 03:41:49 r, 16.76m,0000000016Hz,0000027857c,0000000.060s, 005.1C,00002191
2016-01-24 03:51:49 r, 16.81m,0000000016Hz,0000029001c,0000000.063s, 005.1C,00002191
2016-01-24 04:01:49 r, 16.86m,0000000015Hz,0000030487c,0000000.066s, 004.8C,00002191
2016-01-24 04:11:49 r, 16.92m,0000000014Hz,0000032058c,0000000.070s, 004.8C,00002191
2016-01-24 04:21:49 r, 16.98m,0000000013Hz,0000034015c,0000000.074s, 004.8C,00002191
2016-01-24 04:31:49 r, 17.04m,0000000013Hz,0000036007c,0000000.078s, 004.8C,00002191
2016-01-24 04:41:49 r, 17.11m,0000000012Hz,0000038218c,0000000.083s, 004.5C,00002191
2016-01-24 04:51:49 r, 17.17m,0000000012Hz,0000040544c,0000000.088s, 004.1C,00002191
2016-01-24 05:01:49 r, 17.24m,0000000010Hz,0000043436c,0000000.094s, 003.8C,00002191
2016-01-24 05:11:49 r, 17.34m,0000000010Hz,0000047292c,0000000.103s, 003.5C,00002191
2016-01-24 05:21:49 r, 17.42m,0000000009Hz,0000050795c,0000000.110s, 003.2C,00002191
2016-01-24 05:31:49 r, 17.50m,0000000008Hz,0000054825c,0000000.119s, 002.9C,00002191
2016-01-24 05:41:49 r, 17.60m,0000000007Hz,0000060233c,0000000.131s, 002.5C,00002191
2016-01-24 05:51:49 r, 17.69m,0000000008Hz,0000065317c,0000000.142s, 002.9C,00002191
2016-01-24 06:01:49 r, 17.85m,0000000006Hz,0000076156c,0000000.165s, 002.9C,00002191
2016-01-24 06:11:49 r, 18.03m,0000000005Hz,0000090023c,0000000.195s, 003.2C,00002191
2016-01-24 06:21:49 r, 18.07m,0000000005Hz,0000093114c,0000000.202s, 003.5C,00002191
2016-01-24 06:31:50 r, 18.24m,0000000004Hz,0000108429c,0000000.235s, 003.8C,00002191
2016-01-24 06:41:49 r, 18.41m,0000000003Hz,0000126164c,0000000.274s, 004.1C,00002191
2016-01-24 06:51:49 r, 18.42m,0000000003Hz,0000127749c,0000000.277s, 004.1C,00002191
2016-01-24 07:01:50 r, 18.28m,0000000004Hz,0000112373c,0000000.244s, 004.1C,00002191
2016-01-24 07:11:49 r, 17.46m,0000000009Hz,0000053162c,0000000.115s, 004.5C,00002191
2016-01-24 07:21:49 r, 16.07m,0000000032Hz,0000014672c,0000000.032s, 004.5C,00002191
2016-01-24 07:31:50 r, 14.27m,0000000165Hz,0000000000c,0000000.000s, 004.5C,00002191
2016-01-24 07:41:49 r, 12.38m,0000000940Hz,0000000000c,0000000.000s, 004.5C,00002191
2016-01-24 07:51:49 r, 10.48m,0000005430Hz,0000000000c,0000000.000s, 004.8C,00002191
2016-01-24 08:01:50 r, 09.00m,0000021201Hz,0000000000c,0000000.000s, 004.8C,00002191
2016-01-24 08:11:49 r, 08.02m,0000052670Hz,0000000000c,0000000.000s, 005.1C,00002191
2016-01-24 08:21:49 r, 07.23m,0000108747Hz,0000000000c,0000000.000s, 004.8C,00002191
2016-01-24 08:31:49 r, 06.74m,0000171241Hz,0000000000c,0000000.000s, 005.4C,00002191
2016-01-24 08:41:49 r, 06.20m,0000279707Hz,0000000000c,0000000.000s, 005.4C,00002191
2016-01-24 08:51:49 r, 05.83m,0000393210Hz,0000000000c,0000000.000s, 005.8C,00002191
2016-01-24 09:01:49 r, 00.00m,0000454467Hz,0000000000c,0000000.000s, 005.8C,00002191
2016-01-24 09:11:49 r, 00.00m,0000522134Hz,0000000000c,0000000.000s, 006.1C,00002191
2016-01-24 09:21:49 r, 00.00m,0000495167Hz,0000000000c,0000000.000s, 006.4C,00002191
2016-01-24 09:31:50 r, 00.00m,0000597076Hz,0000000000c,0000000.000s, 006.4C,00002191
2016-01-24 09:41:49 r, 00.00m,0000597103Hz,0000000000c,0000000.000s, 006.7C,00002191
2016-01-24 09:51:49 r, 00.00m,0000597061Hz,0000000000c,0000000.000s, 006.7C,00002191
2016-01-24 10:01:49 r, 00.00m,0000597111Hz,0000000000c,0000000.000s, 007.0C,00002191
2016-01-24 10:11:49 r, 00.00m,0000597005Hz,0000000000c,0000000.000s, 007.0C,00002191
2016-01-24 10:21:49 r, 00.00m,0000597072Hz,0000000000c,0000000.000s, 007.0C,00002191
2016-01-24 10:31:49 r, 00.00m,0000597131Hz,0000000000c,0000000.000s, 007.4C,00002191
2016-01-24 10:41:49 r, 00.00m,0000597025Hz,0000000000c,0000000.000s, 007.7C,00002191
2016-01-24 10:51:49 r, 00.00m,0000597092Hz,0000000000c,0000000.000s, 008.3C,00002191
2016-01-24 11:01:49 r, 00.00m,0000597029Hz,0000000000c,0000000.000s, 008.3C,00002191
2016-01-24 11:11:49 r, 00.00m,0000597052Hz,0000000000c,0000000.000s, 008.7C,00002191
2016-01-24 11:21:49 r, 00.00m,0000596955Hz,0000000000c,0000000.000s, 009.0C,00002191
2016-01-24 11:31:49 r, 00.00m,0000596894Hz,0000000000c,0000000.000s, 008.7C,00002191
2016-01-24 11:41:49 r, 00.00m,0000596815Hz,0000000000c,0000000.000s, 008.7C,00002191
2016-01-24 11:51:49 r, 00.00m,0000596966Hz,0000000000c,0000000.000s, 008.7C,00002191
2016-01-24 12:01:49 r, 00.00m,0000597012Hz,0000000000c,0000000.000s, 009.0C,00002191
2016-01-24 12:11:49 r, 00.00m,0000596935Hz,0000000000c,0000000.000s, 009.0C,00002191
2016-01-24 12:21:49 r, 00.00m,0000596993Hz,0000000000c,0000000.000s, 009.0C,00002191
2016-01-24 12:31:49 r, 00.00m,0000597038Hz,0000000000c,0000000.000s, 009.0C,00002191
2016-01-24 12:41:49 r, 00.00m,0000597012Hz,0000000000c,0000000.000s, 009.3C,00002191
2016-01-24 12:51:49 r, 00.00m,0000597100Hz,0000000000c,0000000.000s, 009.3C,00002191
2016-01-24 13:01:50 r, 00.00m,0000596943Hz,0000000000c,0000000.000s, 009.3C,00002191
2016-01-24 13:11:49 r, 00.00m,0000596988Hz,0000000000c,0000000.000s, 009.3C,00002191
2016-01-24 13:21:49 r, 00.00m,0000596959Hz,0000000000c,0000000.000s, 009.3C,00002191
2016-01-24 13:31:49 r, 00.00m,0000596897Hz,0000000000c,0000000.000s, 009.3C,00002191
2016-01-24 13:41:49 r, 00.00m,0000596917Hz,0000000000c,0000000.000s, 009.6C,00002191
2016-01-24 13:51:49 r, 00.00m,0000596963Hz,0000000000c,0000000.000s, 009.6C,00002191
2016-01-24 14:01:49 r, 00.00m,0000597095Hz,0000000000c,0000000.000s, 009.6C,00002191
2016-01-24 14:11:49 r, 00.00m,0000597112Hz,0000000000c,0000000.000s, 009.6C,00002191
2016-01-24 14:21:49 r, 00.00m,0000596967Hz,0000000000c,0000000.000s, 009.6C,00002191
2016-01-24 14:31:49 r, 00.00m,0000597003Hz,0000000000c,0000000.000s, 009.3C,00002191
2016-01-24 14:41:50 r, 00.00m,0000597040Hz,0000000000c,0000000.000s, 009.6C,00002191
2016-01-24 14:51:49 r, 00.00m,0000597040Hz,0000000000c,0000000.000s, 009.6C,00002191
2016-01-24 15:01:49 r, 00.00m,0000597062Hz,0000000000c,0000000.000s, 009.6C,00002191
2016-01-24 15:11:49 r, 00.00m,0000597029Hz,0000000000c,0000000.000s, 009.3C,00002191
2016-01-24 15:21:49 r, 00.00m,0000597043Hz,0000000000c,0000000.000s, 009.3C,00002191
2016-01-24 15:31:49 r, 00.00m,0000597085Hz,0000000000c,0000000.000s, 009.3C,00002191
2016-01-24 15:41:49 r, 00.00m,0000597117Hz,0000000000c,0000000.000s, 009.0C,00002191
2016-01-24 15:51:49 r, 00.00m,0000597157Hz,0000000000c,0000000.000s, 008.7C,00002191
2016-01-24 16:01:49 r, 00.00m,0000597083Hz,0000000000c,0000000.000s, 008.3C,00002191
2016-01-24 16:11:49 r, 00.00m,0000538546Hz,0000000000c,0000000.000s, 008.3C,00002191
2016-01-24 16:21:49 r, 00.00m,0000432109Hz,0000000000c,0000000.000s, 008.0C,00002191
2016-01-24 16:31:49 r, 05.96m,0000349201Hz,0000000000c,0000000.000s, 007.7C,00002191
2016-01-24 16:41:49 r, 06.20m,0000279636Hz,0000000000c,0000000.000s, 007.7C,00002191
2016-01-24 16:51:49 r, 06.51m,0000210582Hz,0000000000c,0000000.000s, 007.4C,00002191
2016-01-24 17:01:49 r, 07.15m,0000117104Hz,0000000000c,0000000.000s, 007.4C,00002191
2016-01-24 17:11:49 r, 08.08m,0000049275Hz,0000000000c,0000000.000s, 007.0C,00002191
2016-01-24 17:21:49 r, 09.15m,0000018631Hz,0000000000c,0000000.000s, 007.0C,00002191
2016-01-24 17:31:49 r, 10.83m,0000003920Hz,0000000000c,0000000.000s, 006.7C,00002191
2016-01-24 17:41:49 r, 12.89m,0000000590Hz,0000000000c,0000000.000s, 006.7C,00002191
2016-01-24 17:51:49 r, 14.86m,0000000095Hz,0000004863c,0000000.011s, 007.0C,00002191
2016-01-24 18:01:49 r, 16.54m,0000000020Hz,0000022751c,0000000.049s, 007.0C,00002191
2016-01-24 18:11:49 r, 17.56m,0000000008Hz,0000057646c,0000000.125s, 007.0C,00002191
2016-01-24 18:21:49 r, 18.12m,0000000005Hz,0000096915c,0000000.210s, 007.0C,00002191
2016-01-24 18:31:49 r, 18.32m,0000000004Hz,0000116224c,0000000.252s, 007.0C,00002191
2016-01-24 18:41:51 r, 18.22m,0000000004Hz,0000106568c,0000000.231s, 007.0C,00002191
2016-01-24 18:51:49 r, 18.21m,0000000005Hz,0000105641c,0000000.229s, 007.0C,00002191
2016-01-24 19:01:49 r, 18.14m,0000000004Hz,0000098922c,0000000.215s, 007.0C,00002191
2016-01-24 19:11:50 r, 18.07m,0000000005Hz,0000092451c,0000000.201s, 007.4C,00002191
2016-01-24 19:21:49 r, 18.03m,0000000005Hz,0000089310c,0000000.194s, 007.4C,00002191
2016-01-24 19:31:49 r, 18.00m,0000000005Hz,0000087176c,0000000.189s, 007.4C,00002191
2016-01-24 19:41:49 r, 17.96m,0000000006Hz,0000083564c,0000000.181s, 007.4C,00002191
2016-01-24 19:51:49 r, 17.79m,0000000006Hz,0000071970c,0000000.156s, 007.4C,00002191
2016-01-24 20:01:49 r, 17.70m,0000000007Hz,0000065964c,0000000.143s, 007.4C,00002191
2016-01-24 20:11:49 r, 17.72m,0000000007Hz,0000067102c,0000000.146s, 007.4C,00002191
2016-01-24 20:21:49 r, 17.73m,0000000007Hz,0000068049c,0000000.148s, 007.4C,00002191
2016-01-24 20:31:49 r, 17.62m,0000000008Hz,0000061254c,0000000.133s, 007.4C,00002191
2016-01-24 20:41:49 r, 17.51m,0000000009Hz,0000055135c,0000000.120s, 007.0C,00002191
2016-01-24 20:51:49 r, 17.46m,0000000009Hz,0000053020c,0000000.115s, 007.0C,00002191
2016-01-24 21:01:49 r, 17.38m,0000000010Hz,0000048984c,0000000.106s, 007.0C,00002191
2016-01-24 21:11:50 r, 17.27m,0000000010Hz,0000044291c,0000000.096s, 007.0C,00002191
2016-01-24 21:21:49 r, 17.09m,0000000012Hz,0000037607c,0000000.082s, 007.0C,00002191
2016-01-24 21:31:49 r, 17.03m,0000000013Hz,0000035753c,0000000.078s, 007.0C,00002191
2016-01-24 21:41:50 r, 17.01m,0000000013Hz,0000035318c,0000000.077s, 007.0C,00002191
2016-01-24 21:51:49 r, 17.06m,0000000013Hz,0000036795c,0000000.080s, 007.0C,00002191
2016-01-24 22:01:49 r, 17.03m,0000000013Hz,0000035593c,0000000.077s, 007.0C,00002191
2016-01-24 22:11:50 r, 16.99m,0000000013Hz,0000034480c,0000000.075s, 007.4C,00002191
2016-01-24 22:21:49 r, 16.89m,0000000014Hz,0000031443c,0000000.068s, 007.4C,00002191
2016-01-24 22:31:49 r, 16.88m,0000000015Hz,0000031049c,0000000.067s, 007.7C,00002191
2016-01-24 22:41:49 r, 16.71m,0000000017Hz,0000026603c,0000000.058s, 007.7C,00002191
2016-01-24 22:51:48 r, 16.62m,0000000019Hz,0000024226c,0000000.053s, 007.7C,00002191
2016-01-24 23:01:48 r, 16.86m,0000000016Hz,0000030290c,0000000.066s, 007.7C,00002191
2016-01-24 23:11:50 r, 16.72m,0000000017Hz,0000026789c,0000000.058s, 007.7C,00002191
2016-01-24 23:21:49 r, 16.59m,0000000020Hz,0000023804c,0000000.052s, 007.7C,00002191
2016-01-24 23:31:49 r, 16.61m,0000000019Hz,0000024114c,0000000.052s, 007.7C,00002191
2016-01-24 23:41:50 r, 16.54m,0000000020Hz,0000022660c,0000000.049s, 007.7C,00002191
2016-01-24 23:51:49 r, 16.62m,0000000019Hz,0000024300c,0000000.053s, 007.7C,00002191
